Location: Sternwarte Stuttgart
(48.7670°N, 9.1830°E)
Time: 11:28:59
(UTC+02:00)

ISS - All Passes

Search period start: 25 May 2018 00:00
Search period end: 04 June 2018 00:00
Orbit: 402 x 407 km, 51.6° (Epoch: 25 May)

Date Brightness Start Highest point End Pass type
(mag) Time Alt. Az. Time Alt. Az. Time Alt. Az.
25 May - 00:29:34 10° WNW 00:32:45 49° N 00:35:58 10° E visible
25 May - 02:06:06 10° WNW 02:09:23 75° SSW 02:12:38 10° ESE visible
25 May - 03:43:20 10° W 03:45:26 16° SW 03:47:31 10° S visible
25 May - 20:25:12 10° S 20:27:39 20° SE 20:30:07 10° E daylight
25 May - 22:00:31 10° WSW 22:03:48 88° SSE 22:07:05 10° ENE visible
25 May - 23:37:16 10° WNW 23:40:27 48° N 23:43:39 10° ENE visible
26 May - 01:13:54 10° WNW 01:17:11 77° NNE 01:20:27 10° ESE visible
26 May - 02:50:40 10° W 02:53:26 26° SW 02:56:12 10° SSE visible
26 May - 19:34:20 10° SSE 19:35:41 12° SE 19:37:02 10° ESE daylight
26 May - 21:08:23 10° SW 21:11:37 59° SSE 21:14:50 10° ENE daylight
26 May - 22:44:57 10° W 22:48:09 52° N 22:51:23 10° ENE visible
27 May - 00:21:41 10° WNW 00:24:56 60° NNE 00:28:10 10° E visible
27 May - 01:58:15 10° WNW 02:01:22 41° SSW 02:04:27 10° SE visible
27 May - 20:16:25 10° SW 20:19:29 37° SSE 20:22:32 10° ENE daylight
27 May - 21:52:37 10° W 21:55:52 63° NNW 21:59:08 10° ENE visible
27 May - 23:29:25 10° WNW 23:32:38 51° N 23:35:50 10° E visible
28 May - 01:05:57 10° WNW 01:09:13 65° SSW 01:12:27 10° SE visible
28 May - 02:43:30 10° WSW 02:45:11 13° SW 02:46:51 10° SSW visible
28 May - 19:24:42 10° SSW 19:27:23 23° SE 19:30:04 10° E daylight
28 May - 21:00:19 10° WSW 21:03:36 82° NNW 21:06:53 10° ENE daylight
28 May - 22:37:06 10° WNW 22:40:18 48° N 22:43:30 10° ENE visible
29 May - 00:13:42 10° WNW 00:16:59 86° NNE 00:20:16 10° ESE visible
29 May - 01:50:35 10° W 01:53:11 22° SW 01:55:45 10° SSE visible
29 May - 18:33:28 10° S 18:35:21 15° SE 18:37:15 10° ESE daylight
29 May - 20:08:06 10° WSW 20:11:22 69° SSE 20:14:38 10° ENE daylight
29 May - 21:44:45 10° W 21:47:58 50° N 21:51:10 10° ENE daylight
29 May - 23:21:27 10° WNW 23:24:42 65° NNE 23:27:58 10° E visible
30 May - 00:58:04 10° W 01:01:05 35° SSW 01:04:05 10° SSE visible
30 May - 19:16:02 10° SW 19:19:10 44° SSE 19:22:19 10° ENE daylight
30 May - 20:52:23 10° W 20:55:37 58° NNW 20:58:52 10° ENE daylight
30 May - 22:29:09 10° WNW 22:32:23 53° N 22:35:36 10° E visible
31 May - 00:05:42 10° WNW 00:08:55 55° SSW 00:12:07 10° SE visible
31 May - 01:43:49 10° WSW 01:44:48 11° SW 01:45:48 10° SSW visible
31 May - 18:24:10 10° SSW 18:27:01 28° SE 18:29:52 10° E daylight
31 May - 20:00:01 10° WSW 20:03:18 74° NNW 20:06:35 10° ENE daylight
31 May - 21:36:49 10° WNW 21:40:01 49° N 21:43:13 10° E daylight
31 May - 23:13:23 10° WNW 23:16:40 84° SSW 23:19:56 10° ESE visible
01 Jun - 00:50:26 10° W 00:52:47 18° SW 00:55:07 10° S visible
01 Jun - 17:32:41 10° S 17:34:55 17° SE 17:37:10 10° E daylight
01 Jun - 19:07:44 10° WSW 19:11:00 80° SSE 19:14:17 10° ENE daylight
01 Jun - 20:44:26 10° W 20:47:39 49° N 20:50:51 10° ENE daylight
01 Jun - 22:21:05 10° WNW 22:24:22 71° NNE 22:27:38 10° ESE visible
01 Jun - 23:57:46 10° W 00:00:41 29° SW 00:03:34 10° SSE visible
02 Jun - 16:42:23 10° SE 16:42:53 10° SE 16:43:23 10° SE daylight
02 Jun - 18:15:33 10° SW 18:18:45 52° SSE 18:21:57 10° ENE daylight
02 Jun - 19:52:01 10° W 19:55:16 55° N 19:58:30 10° ENE daylight
02 Jun - 21:28:47 10° WNW 21:32:01 56° N 21:35:15 10° E daylight
02 Jun - 23:05:20 10° WNW 23:08:30 47° SSW 23:11:39 10° SE visible
03 Jun - 17:23:34 10° SSW 17:26:33 32° SE 17:29:32 10° E daylight
03 Jun - 18:59:37 10° W 19:02:53 67° NNW 19:06:09 10° ENE daylight
03 Jun - 20:36:25 10° WNW 20:39:38 50° N 20:42:50 10° E daylight
03 Jun - 22:12:58 10° WNW 22:16:14 73° SSW 22:19:30 10° ESE visible
03 Jun - 23:50:14 10° W 23:52:16 16° SW 23:54:17 10° S visible
